Regional Weather Roundup
Issued by NWS State College, PA

Home | Current Version | Previous Version | Graphics & Text | Print | Product List | Glossary Off
Versions: 1 2 3 4 5 6 7 8 9 10 11 12 13 14 15 16 17 18 19 20 21 22 23 24 25 26 27 28 29 30 31 32 33 34 35 36 37 38 39 40 41 42 43 44 45 46 47 48 49 50

000
ASUS41 KCTP 041110
RWRCTP

REGIONAL WEATHER ROUNDUP
NATIONAL WEATHER SERVICE STATE COLLEGE PA
700 AM EDT MON MAY 04 2015

Note: "fair" indicates few or no clouds below 12,000 feet with no
significant weather and/or obstructions to visibility.

* = STATION THAT DOES NOT REPORT PRECIPITATION /E.G. RAIN...SNOW...ETC/
    THUNDER OR FOG.

PAZ002>004-007>009-013>016-020>023-029>032-041200-
WESTERN PENNSYLVANIA

CITY           SKY/WX    TMP DP  RH WIND       PRES   REMARKS
ERIE           CLEAR     61  41  47 S10       30.10R
MEADVILLE      CLEAR     60  39  45 S5        30.14R
FRANKLIN*      CLEAR     54  39  58 S7        30.18R
NEW CASTLE     FAIR      56  45  66 CALM      30.17R
BEAVER COUNTY  NOT AVBL
BUTLER*        CLEAR     48  43  81 CALM      30.20R
PITTSBURGH INT MOCLDY    51  43  74 CALM      30.17R
PITTSBURGH     CLEAR     56  37  49 S8        30.17R
INDIANA*       CLEAR     48  43  81 E3        30.23R
LATROBE        CLEAR     46  45  93 CALM      30.21R
WASHINGTON CO* CLEAR     43  37  81 CALM      30.20R
$$

PAZ004>006-010>012-017>019-024>028-033>037-041-042-045-046-049>053-041200-
CENTRAL PENNSYLVANIA

CITY           SKY/WX    TMP DP  RH WIND       PRES   REMARKS
BRADFORD       CLOUDY    48  41  76 S5        30.19R
DUBOIS         CLOUDY    59  39  47 S5        30.19R
CLEARFIELD     CLEAR     46  40  79 CALM      30.21R
JOHNSTOWN      CLEAR     57  36  45 SW6       30.21R
ALTOONA        CLEAR     48  41  76 CALM      30.21R
STATE COLLEGE  CLEAR     54  41  62 SW5       30.20R
WILLIAMSPORT   CLEAR     49  42  77 CALM      30.20R
SELINSGROVE    CLEAR     46  45  96 CALM      30.20R
FT INDIANTOWN  CLEAR     49  44  82 N2        30.20R
CAPITAL CITY   CLEAR     51  46  83 CALM      30.20R
HARRISBURG     CLEAR     53  48  83 CALM      30.20R
YORK           CLEAR     47  45  93 CALM      30.20R
$$

PAZ038>040-043-044-047-048-054-055-060>062-067>071-041200-
EASTERN PENNSYLVANIA

CITY           SKY/WX    TMP DP  RH WIND       PRES   REMARKS
SCRANTON       MOSUNNY   54  39  57 CALM      30.19R
MOUNT POCONO   PTSUNNY   53  41  63 NW3       30.22R
ALLENTOWN      SUNNY     50  43  77 CALM      30.20R
QUAKERTOWN*    SUNNY     46  43  87 CALM      30.21R
READING        SUNNY     52  45  77 CALM      30.19R
LANCASTER      PTCLDY    49  44  83 E3        30.20R HAZE
COATESVILLE    SUNNY     59  46  63 W3        30.21R
POTTSTOWN      SUNNY     51  47  86 CALM      30.22R
BLUE BELL      FAIR      50  48  93 CALM      30.20R
DOYLESTOWN     SUNNY     50  46  86 CALM      30.20R
WILLOW GROVE   NOT AVBL
NORTH PHILA    SUNNY     56  44  64 CALM      30.22R
PHILADELPHIA   MOSUNNY   57  51  80 CALM      30.21R
$$


USA.gov is the U.S. government's official web portal to all federal, state and local government web resources and services.